Date,TemperatureHighF,TemperatureAvgF,TemperatureLowF,DewpointHighF,DewpointAvgF,DewpointLowF,HumidityHigh,HumidityAvg,HumidityLow,PressureMaxIn,PressureMinIn,WindSpeedMaxMPH,WindSpeedAvgMPH,GustSpeedMaxMPH,PrecipitationSumIn
2013-1-1,34.2,23.5,10.8,24.5,10.4,-0.4,75,57,45,30.03,29.77,18,7,18,0.00
2013-1-2,27.3,20.4,10.4,17.9,10.3,-0.8,79,65,51,30.18,29.94,21,6,21,0.00
2013-1-3,30.9,22.9,12.0,23.2,14.4,5.0,81,70,55,30.15,29.91,17,6,17,0.00
2013-1-4,37.9,31.8,26.8,21.4,18.6,14.8,73,58,43,29.97,29.83,33,14,39,0.00
2013-1-5,40.6,33.0,29.1,24.0,20.5,18.4,65,60,49,30.27,29.97,22,6,22,0.04
2013-1-6,39.4,35.2,31.3,31.2,26.3,19.4,85,70,58,30.06,29.83,16,7,16,0.00
2013-1-7,36.3,29.5,24.3,31.2,20.2,14.3,85,69,47,30.36,30.03,17,6,17,0.00
2013-1-8,45.0,31.9,26.2,22.3,17.8,14.0,70,56,40,30.27,30.12,15,5,15,0.00
2013-1-9,49.5,36.4,23.7,30.0,23.5,15.7,78,60,44,30.27,29.88,31,8,31,0.00
2013-1-10,46.8,38.1,33.6,25.6,22.7,19.6,71,54,39,30.56,30.27,16,5,16,0.00
2013-1-11,46.4,40.6,34.0,39.6,31.1,24.4,83,69,53,30.39,29.85,15,7,15,0.17
2013-1-12,59.0,50.6,42.3,48.2,44.7,38.9,96,81,65,30.00,29.88,13,6,13,0.00
2013-1-13,67.8,56.7,48.2,52.8,49.6,44.3,93,78,56,29.94,29.71,20,5,20,0.00
2013-1-14,54.5,37.3,28.8,51.3,25.3,14.0,91,62,46,30.36,29.68,26,8,26,0.00
2013-1-15,38.3,30.6,25.7,17.9,15.4,12.4,64,53,40,30.36,30.15,10,3,10,0.00
2013-1-16,39.6,33.6,30.0,26.4,20.8,14.9,66,59,43,30.15,29.71,21,5,21,0.00
2013-1-17,36.1,26.4,17.8,26.7,14.2,6.5,75,60,48,30.15,29.77,24,7,24,0.00
2013-1-18,21.9,16.3,10.0,11.6,8.7,3.9,80,72,46,30.42,30.12,17,5,17,0.00
2013-1-20,29.5,23.5,19.2,12.5,7.6,2.7,69,51,40,30.06,29.77,34,12,34,0.00
2013-1-21,24.8,20.2,17.6,7.2,2.9,0.8,48,47,45,30.03,29.85,15,6,15,0.00
2013-1-22,24.3,11.4,7.5,6.9,-7.2,-11.3,47,42,41,30.12,29.83,25,10,25,0.00
2013-1-23,17.1,9.7,4.5,1.1,-6.4,-12.1,59,48,41,30.18,30.03,12,4,12,0.00
2013-1-24,19.6,11.9,6.3,6.1,-2.1,-8.2,71,53,44,30.48,30.03,20,4,20,0.00
2013-1-25,22.5,13.7,7.9,6.9,-0.2,-8.0,72,54,45,30.44,30.03,8,3,8,0.00
2013-1-26,28.8,15.9,3.6,10.9,4.1,-4.3,72,60,41,30.33,30.03,10,2,11,0.00
2013-1-27,35.6,22.5,11.3,16.0,10.3,4.6,78,60,41,30.50,30.30,11,3,11,0.00
2013-1-28,43.2,34.0,23.7,42.6,28.2,12.2,98,80,59,30.33,29.80,17,4,17,0.29
2013-1-29,54.1,42.8,33.3,53.6,42.3,32.8,98,98,98,30.03,29.71,15,3,15,0.45
2013-1-30,64.4,58.3,51.8,55.9,49.8,45.0,98,74,56,29.71,29.03,31,7,31,0.05
2013-1-31,54.5,31.8,22.3,52.5,18.1,5.7,94,58,41,29.65,28.97,38,14,38,0.12
2013-2-1,26.4,20.9,17.4,14.3,7.8,3.1,80,57,42,30.15,29.65,20,8,20,0.00
2013-2-2,24.4,18.9,12.7,10.2,5.7,1.1,71,56,44,30.15,29.91,20,6,20,0.00
2013-2-3,30.4,19.9,11.8,14.0,9.0,4.2,78,64,41,29.94,29.71,15,4,15,0.00
2013-2-4,26.6,20.5,16.0,8.0,5.5,2.6,62,52,41,29.91,29.77,20,7,20,0.00
2013-2-5,33.1,24.1,16.9,14.2,10.9,7.7,74,57,43,29.94,29.77,10,3,10,0.00
2013-2-6,35.8,24.8,14.4,21.5,11.4,1.9,81,58,38,30.33,29.80,20,6,20,0.00
2013-2-7,32.2,24.8,14.5,19.8,10.5,3.2,76,55,43,30.42,30.06,16,6,16,0.00
2013-2-8,34.7,29.7,18.9,31.6,23.1,15.6,94,77,53,30.06,29.71,12,2,12,0.00
2013-2-9,26.1,19.2,10.0,16.2,12.3,4.3,87,75,55,30.39,30.03,0,0,0,0.00
2013-2-10,46.4,21.8,3.4,23.9,11.7,-2.2,77,66,38,30.39,29.94,10,2,10,0.08
2013-2-11,55.4,39.2,33.8,36.9,26.5,20.3,78,61,48,29.94,29.50,43,11,43,0.50
2013-2-12,38.5,33.5,31.5,29.2,23.4,18.9,86,67,50,29.91,29.65,29,10,29,0.00
2013-2-13,50.9,33.9,23.4,24.5,20.5,16.4,75,59,36,29.85,29.65,10,2,10,0.00
2013-2-14,23.9,23.5,23.2,17.7,17.2,16.3,77,76,75,29.77,29.74,4,0,4,0.00
2013-2-17,20.5,20.5,20.5,9.2,9.2,9.2,61,61,61,29.91,29.91,6,6,6,0.00
2013-3-8,39.6,26.8,20.7,19.4,14.7,-2.3,60,60,51,30.33,29.68,18,1,18,0.08
2013-3-9,31.2,22.9,20.7,19.0,11.1,9.0,60,60,60,30.33,30.33,6,4,6,0.00
2013-3-10,20.7,20.7,20.7,9.0,9.0,9.0,60,60,60,30.33,30.33,6,5,6,0.00
2013-3-11,20.7,20.7,20.7,9.0,9.0,9.0,60,60,60,30.33,30.33,6,6,6,0.00
2013-3-12,20.7,20.7,20.7,9.0,9.0,9.0,60,60,60,30.33,30.33,6,5,6,0.00
2013-3-13,20.7,20.7,20.7,9.0,9.0,9.0,60,60,60,30.33,30.33,6,6,6,0.00
2013-3-14,20.7,20.7,20.7,9.0,9.0,9.0,60,60,60,30.33,30.33,6,6,6,0.00
2013-3-15,20.7,20.7,20.7,9.0,9.0,9.0,60,60,60,30.33,30.33,6,5,6,0.00
2013-3-16,20.7,20.7,20.7,9.0,9.0,9.0,60,60,60,30.33,30.33,6,5,6,0.00
2013-3-17,20.7,20.7,20.7,9.0,9.0,9.0,60,60,60,30.33,30.33,6,5,6,0.00
2013-3-18,20.7,20.7,20.7,9.0,9.0,9.0,60,60,60,30.33,30.33,6,6,6,0.00
2013-3-21,20.7,20.7,20.7,9.0,9.0,9.0,60,60,60,30.33,30.33,6,6,6,0.00
2013-3-22,20.7,20.7,20.7,9.0,9.0,9.0,60,60,60,30.33,30.33,6,6,6,0.00
2013-3-23,20.7,20.7,20.7,9.0,9.0,9.0,60,60,60,30.33,30.33,6,6,6,0.00
2013-3-24,20.7,20.7,20.7,9.0,9.0,9.0,60,60,60,30.33,30.33,6,6,6,0.00
2013-3-25,20.7,20.7,20.7,9.0,9.0,9.0,60,60,60,30.33,30.33,6,6,6,0.00
2013-3-26,20.7,20.7,20.7,9.0,9.0,9.0,60,60,60,30.33,30.33,6,6,6,0.00
2013-3-27,20.7,20.7,20.7,9.0,9.0,9.0,60,60,60,30.33,30.33,6,6,6,0.00
2013-3-28,20.7,20.7,20.7,9.0,9.0,9.0,60,60,60,30.33,30.33,6,6,6,0.00
2013-3-29,20.7,20.7,20.7,9.0,9.0,9.0,60,60,60,30.33,30.33,6,6,6,0.00
2013-4-15,82.4,69.2,31.6,46.2,41.1,18.1,71,37,28,30.06,29.80,16,6,16,0.00
2013-4-16,66.6,57.9,45.3,57.6,47.5,29.2,98,70,51,30.21,29.91,26,7,26,0.08
2013-4-17,63.1,47.6,34.5,35.8,29.7,22.9,82,52,33,30.33,30.21,14,3,14,0.00
2013-4-18,83.5,62.2,42.8,55.3,44.2,27.2,70,53,32,30.21,29.65,28,8,28,0.00
2013-4-19,73.9,59.1,42.1,55.3,45.4,24.8,84,61,45,29.74,29.29,31,10,31,0.21
2013-4-20,44.6,39.1,32.9,29.5,21.1,14.5,69,49,38,30.39,29.68,27,10,27,0.00
2013-4-21,45.0,31.6,24.8,23.8,18.1,14.9,70,58,41,30.65,30.36,8,2,8,0.00